Terminal Aerodrome Forecast
Issued by NWS Twin Cities, MN

Home | Current Version | Previous Version | Text Only | Print | Product List | Glossary On
Versions: 1 2 3 4 5 6 7 8 9 10 11 12
000
FTUS43 KMPX 160520
TAFSTC
TAF
KSTC 160520Z 1606/1706 14006KT P6SM VCSH SCT060 OVC090
     FM161100 15005KT P6SM SCT050 OVC070
     FM161500 20007KT P6SM OVC050
     FM162100 27008KT P6SM BKN050
     FM170100 31004KT P6SM SCT050=

USA.gov is the U.S. government's official web portal to all federal, state and local government web resources and services.